DW6996 Weather Reports


Display with metric or nautical units.
time (UTC)temp
F
wind
direction
speed
MPH
gust
MPH
rain 1hr
in
rain 24hr
in
rain mn
in
humidity
%
barometer
mb
20260904200729 97 157 1.0 9.0 0.00 0.00 0.00 36 1010.2
20260904200447 97 232 0.0 9.0 0.00 0.00 0.00 36 1010.2
20260904195728 97 128 1.0 7.0 0.00 0.00 0.00 35 1010.3
20260904195229 97 141 1.0 9.0 0.00 0.00 0.00 35 1010.3
20260904194728 98 164 0.0 9.0 0.00 0.00 0.00 35 1010.4
20260904194450 97 208 0.0 4.0 0.00 0.00 0.00 36 1010.4
20260904193729 97 197 1.0 8.0 0.00 0.00 0.00 36 1010.4
20260904193228 96 148 1.0 8.0 0.00 0.00 0.00 37 1010.7
20260904192730 97 156 1.0 8.0 0.00 0.00 0.00 36 1010.7
20260904192229 97 155 0.0 6.0 0.00 0.00 0.00 36 1010.7
20260904191729 97 176 1.0 10.0 0.00 0.00 0.00 36 1010.9
20260904191229 97 196 1.0 10.0 0.00 0.00 0.00 36 1010.9
20260904190729 97 165 0.0 10.0 0.00 0.00 0.00 36 1010.9
20260904190229 96 172 1.0 11.0 0.00 0.00 0.00 38 1011.0
20260904185729 96 171 1.0 11.0 0.00 0.00 0.00 39 1011.1
20260904185452 96 111 0.0 6.0 0.00 0.00 0.00 38 1011.1
20260904184729 96 154 1.0 12.0 0.00 0.00 0.00 38 1011.2
20260904184229 96 196 1.0 12.0 0.00 0.00 0.00 38 1011.3
20260904183950 96 138 0.0 10.0 0.00 0.00 0.00 39 1011.4
20260904183230 95 84 0.0 10.0 0.00 0.00 0.00 39 1011.5
20260904182958 94 212 0.0 1.0 0.00 0.00 0.00 41 1011.5
20260904182229 94 260 0.0 6.0 0.00 0.00 0.00 42 1011.6
20260904181950 94 88 0.0 6.0 0.00 0.00 0.00 41 1011.7
20260904181230 94 144 0.0 6.0 0.00 0.00 0.00 42 1011.8
20260904180729 93 134 1.0 12.0 0.00 0.00 0.00 43 1011.8
20260904180229 93 159 1.0 12.0 0.00 0.00 0.00 44 1011.8
20260904175730 93 164 1.0 9.0 0.00 0.00 0.00 43 1011.9
20260904175229 92 161 0.0 5.0 0.00 0.00 0.00 44 1011.9
20260904174729 93 116 1.0 10.0 0.00 0.00 0.00 44 1012.0
20260904174228 93 161 1.0 10.0 0.00 0.00 0.00 43 1012.0
20260904173729 92 193 1.0 6.0 0.00 0.00 0.00 45 1011.9
20260904173450 92 140 1.0 7.0 0.00 0.00 0.00 45 1011.9
20260904172728 92 150 1.0 11.0 0.00 0.00 0.00 46 1012.0
20260904172229 92 142 2.0 11.0 0.00 0.00 0.00 46 1011.9
20260904171953 91 161 2.0 10.0 0.00 0.00 0.00 47 1011.9
20260904171228 91 135 2.0 15.0 0.00 0.00 0.00 47 1012.0
20260904170729 91 162 2.0 15.0 0.00 0.00 0.00 47 1011.9
20260904170229 91 150 1.0 8.0 0.00 0.00 0.00 48 1011.8
20260904165729 91 148 1.0 11.0 0.00 0.00 0.00 48 1011.9
20260904165229 91 144 1.0 11.0 0.00 0.00 0.00 48 1011.8
20260904164729 91 173 1.0 10.0 0.00 0.00 0.00 49 1011.8
20260904164453 91 187 1.0 11.0 0.00 0.00 0.00 49 1011.7
20260904163728 91 134 1.0 11.0 0.00 0.00 0.00 50 1011.7
20260904163229 90 153 1.0 9.0 0.00 0.00 0.00 51 1011.6
20260904162723 90 115 2.0 11.0 0.00 0.00 0.00 51 1011.6
20260904162216 89 168 2.0 13.0 0.00 0.00 0.00 51 1011.7
20260904161710 89 178 2.0 13.0 0.00 0.00 0.00 51 1011.6
20260904161211 89 155 2.0 13.0 0.00 0.00 0.00 52 1011.5
20260904160711 89 149 4.0 13.0 0.00 0.00 0.00 53 1011.6
20260904160211 89 134 6.0 14.0 0.00 0.00 0.00 53 1011.5
20260904155937 88 140 5.0 14.0 0.00 0.00 0.00 53 1011.5
20260904155211 89 130 2.0 11.0 0.00 0.00 0.00 53 1011.5
20260904154709 88 169 3.0 16.0 0.00 0.00 0.00 54 1011.4
20260904154209 88 140 4.0 16.0 0.00 0.00 0.00 54 1011.4
20260904153709 87 151 5.0 17.0 0.00 0.00 0.00 55 1011.4
20260904153209 87 154 4.0 17.0 0.00 0.00 0.00 55 1011.4
20260904152708 87 146 2.0 13.0 0.00 0.00 0.00 56 1011.5
20260904152209 87 154 2.0 13.0 0.00 0.00 0.00 57 1011.4
20260904151709 87 146 3.0 13.0 0.00 0.00 0.00 57 1011.5
20260904151209 87 123 4.0 13.0 0.00 0.00 0.00 58 1011.5
20260904150709 86 130 4.0 13.0 0.00 0.00 0.00 58 1011.4
20260904150439 86 142 4.0 13.0 0.00 0.00 0.00 58 1011.4
20260904145708 86 113 3.0 13.0 0.00 0.00 0.00 58 1011.4
20260904145201 86 135 3.0 11.0 0.00 0.00 0.00 58 1011.4
20260904144701 86 146 2.0 10.0 0.00 0.00 0.00 58 1011.3
20260904144201 85 146 3.0 19.0 0.00 0.00 0.00 59 1011.3
20260904143702 85 133 4.0 19.0 0.00 0.00 0.00 59 1011.2
20260904143202 85 114 3.0 12.0 0.00 0.00 0.00 58 1011.2
20260904142701 85 159 1.0 12.0 0.00 0.00 0.00 58 1011.2
20260904142201 85 126 1.0 7.0 0.00 0.00 0.00 59 1011.1
20260904141701 85 117 2.0 14.0 0.00 0.00 0.00 59 1011.1
20260904141420 85 112 2.0 14.0 0.00 0.00 0.00 59 1011.0
20260904140700 85 154 1.0 15.0 0.00 0.00 0.00 59 1011.0
20260904140201 84 138 1.0 15.0 0.00 0.00 0.00 59 1010.9
20260904135701 84 134 1.0 9.0 0.00 0.00 0.00 59 1010.9
20260904135201 84 137 1.0 9.0 0.00 0.00 0.00 59 1010.8
20260904134700 84 130 0.0 7.0 0.00 0.00 0.00 59 1010.8
20260904134423 84 101 1.0 8.0 0.00 0.00 0.00 59 1010.7
20260904133700 84 159 1.0 8.0 0.00 0.00 0.00 59 1010.6
20260904133201 84 130 0.0 8.0 0.00 0.00 0.00 59 1010.4
20260904132702 84 143 0.0 8.0 0.00 0.00 0.00 59 1010.4
20260904132201 84 159 0.0 5.0 0.00 0.00 0.00 59 1010.3
20260904131922 84 153 0.0 5.0 0.00 0.00 0.00 59 1010.2
20260904131411 84 188 0.0 1.0 0.00 0.00 0.00 59 1010.1
20260904131353 84 179 0.0 1.0 0.00 0.00 0.00 59 1010.1
20260904130201 84 169 0.0 2.0 0.00 0.00 0.00 59 1009.9
20260904125700 84 163 0.0 2.0 0.00 0.00 0.00 59 1009.9
20260904125201 84 103 0.0 1.0 0.00 0.00 0.00 59 1009.8
20260904124701 84 144 0.0 6.0 0.00 0.00 0.00 59 1009.7
20260904124422 84 157 0.0 6.0 0.00 0.00 0.00 58 1009.7
20260904124147 84 152 0.0 5.0 0.00 0.00 0.00 58 1009.6
20260904123200 85 172 0.0 0.0 0.00 0.00 0.00 58 1009.6
20260904122701 85 211 0.0 1.0 0.00 0.00 0.00 58 1009.6
20260904122201 85 279 0.0 1.0 0.00 0.00 0.00 58 1009.5
20260904121701 85 204 0.0 1.0 0.00 0.00 0.00 57 1009.4
20260904121200 85 165 0.0 0.0 0.00 0.00 0.00 57 1009.4
20260904120701 85 139 0.0 0.0 0.00 0.00 0.00 57 1009.4
20260904120201 85 130 0.0 0.0 0.00 0.00 0.00 56 1009.4
20260904115702 85 157 0.0 0.0 0.00 0.00 0.00 56 1009.5
20260904115201 85 175 0.0 0.0 0.00 0.00 0.00 56 1009.4
20260904114701 85 180 0.0 0.0 0.00 0.00 0.00 55 1009.4
20260904114200 85 292 0.0 0.0 0.00 0.00 0.00 55 1009.4
20260904113702 85 292 0.0 0.0 0.00 0.00 0.00 54 1009.4
20260904113201 85 292 0.0 0.0 0.00 0.00 0.00 54 1009.4
20260904112701 85 292 0.0 0.0 0.00 0.00 0.00 54 1009.4
20260904112201 86 292 0.0 0.0 0.00 0.00 0.00 54 1009.4
20260904111702 86 78 0.0 0.0 0.00 0.00 0.00 54 1009.4
20260904111201 86 78 0.0 0.0 0.00 0.00 0.00 54 1009.4
20260904110701 86 78 0.0 0.0 0.00 0.00 0.00 54 1009.4
20260904110201 86 78 0.0 0.0 0.00 0.00 0.00 53 1009.4
20260904105701 86 78 0.0 0.0 0.00 0.00 0.00 53 1009.4
20260904105201 86 310 0.0 0.0 0.00 0.00 0.00 53 1009.3
20260904104701 86 11 0.0 0.0 0.00 0.00 0.00 53 1009.2
20260904104201 86 342 0.0 0.0 0.00 0.00 0.00 53 1009.2
20260904103702 86 265 0.0 0.0 0.00 0.00 0.00 53 1009.2
20260904103420 86 190 0.0 0.0 0.00 0.00 0.00 53 1009.2
20260904102924 86 148 0.0 0.0 0.00 0.00 0.00 53 1009.2
20260904102201 86 224 0.0 0.0 0.00 0.00 0.00 53 1009.1
20260904101702 86 190 0.0 0.0 0.00 0.00 0.00 53 1009.0
20260904101422 86 151 0.0 0.0 0.00 0.00 0.00 53 1009.0
20260904100701 87 161 0.0 5.0 0.00 0.00 0.00 52 1008.9
20260904100655 87 175 0.0 5.0 0.00 0.00 0.00 52 1008.9
20260904095703 87 140 0.0 0.0 0.00 0.00 0.00 51 1008.9
20260904095201 87 134 0.0 0.0 0.00 0.00 0.00 50 1008.9
20260904094924 87 131 0.0 0.0 0.00 0.00 0.00 51 1008.9
20260904094201 87 131 0.0 0.0 0.00 0.00 0.00 51 1008.9
20260904093701 87 131 0.0 0.0 0.00 0.00 0.00 51 1008.9
20260904093422 86 132 0.0 0.0 0.00 0.00 0.00 52 1008.9
20260904092702 86 163 0.0 0.0 0.00 0.00 0.00 52 1008.8
20260904092433 86 193 0.0 0.0 0.00 0.00 0.00 52 1008.8
20260904091701 86 193 0.0 0.0 0.00 0.00 0.00 52 1008.8
20260904091201 86 193 0.0 0.0 0.00 0.00 0.00 51 1008.8
20260904090701 87 193 0.0 0.0 0.00 0.00 0.00 51 1008.9
20260904090200 87 193 0.0 0.0 0.00 0.00 0.00 51 1008.8
20260904085702 87 193 0.0 0.0 0.00 0.00 0.00 50 1008.8
20260904085202 87 193 0.0 0.0 0.00 0.00 0.00 50 1008.7
20260904084701 87 193 0.0 0.0 0.00 0.00 0.00 49 1008.8
20260904084201 87 193 0.0 0.0 0.00 0.00 0.00 49 1008.8
20260904083702 88 193 0.0 0.0 0.00 0.00 0.00 48 1008.9
20260904083201 88 193 0.0 0.0 0.00 0.00 0.00 48 1009.0
20260904082701 88 193 0.0 0.0 0.00 0.00 0.00 48 1008.9
20260904082423 88 193 0.0 0.0 0.00 0.00 0.00 46 1008.9
20260904082149 88 193 0.0 0.0 0.00 0.00 0.00 46 1008.9
20260904081201 88 193 0.0 0.0 0.00 0.00 0.00 47 1008.9
20260904080701 89 193 0.0 0.0 0.00 0.00 0.00 47 1009.0
20260904080201 89 193 0.0 0.0 0.00 0.00 0.00 47 1008.9
20260904075701 89 193 0.0 0.0 0.00 0.00 0.00 47 1008.9
20260904075201 89 193 0.0 0.0 0.00 0.00 0.00 47 1008.9
20260904074701 89 193 0.0 0.0 0.00 0.00 0.00 47 1008.9
20260904074201 89 196 0.0 0.0 0.00 0.00 0.00 47 1008.9
20260904073702 89 196 0.0 0.0 0.00 0.00 0.00 48 1008.9
20260904073200 89 195 0.0 0.0 0.00 0.00 0.00 48 1008.9
20260904072919 89 205 0.0 0.0 0.00 0.00 0.00 47 1008.9
20260904072200 89 161 0.0 1.0 0.00 0.00 0.00 47 1009.0
20260904071920 89 157 0.0 1.0 0.00 0.00 0.00 46 1008.9
20260904071201 89 136 0.0 0.0 0.00 0.00 0.00 47 1008.9
20260904070702 89 121 0.0 0.0 0.00 0.00 0.00 47 1008.8
20260904070201 89 127 0.0 2.0 0.00 0.00 0.00 47 1008.8
20260904065701 89 148 0.0 7.0 0.00 0.00 0.00 47 1008.8
20260904065201 90 140 0.0 7.0 0.00 0.00 0.00 46 1008.7
20260904064701 90 128 0.0 1.0 0.00 0.00 0.00 45 1008.7
20260904064202 90 134 0.0 3.0 0.00 0.00 0.00 45 1008.6
20260904063933 90 139 0.0 5.0 0.00 0.00 0.00 45 1008.7
20260904063421 90 135 0.0 5.0 0.00 0.00 0.00 44 1008.6
20260904062701 91 136 0.0 5.0 0.00 0.00 0.00 44 1008.6
20260904062201 91 123 0.0 5.0 0.00 0.00 0.00 43 1008.6
20260904061701 91 133 0.0 5.0 0.00 0.00 0.00 42 1008.5
20260904061201 91 124 0.0 7.0 0.00 0.00 0.00 42 1008.5
20260904060701 91 150 0.0 7.0 0.00 0.00 0.00 42 1008.5
20260904060201 91 169 0.0 1.0 0.00 0.00 0.00 41 1008.5
20260904055701 92 152 0.0 0.0 0.00 0.00 0.00 40 1008.4
20260904055200 92 155 0.0 0.0 0.00 0.00 0.00 40 1008.3
20260904054701 92 144 0.0 3.0 0.00 0.00 0.00 39 1008.3
20260904054424 92 169 0.0 5.0 0.00 0.00 0.00 39 1008.3
20260904054145 92 148 0.0 5.0 0.00 0.00 0.00 39 1008.2
20260904053200 92 142 0.0 2.0 0.00 0.00 0.00 39 1008.2
20260904052701 92 138 0.0 2.0 0.00 0.00 0.00 39 1008.1
20260904052200 92 141 0.0 3.0 0.00 0.00 0.00 39 1008.2
20260904052136 92 128 0.0 4.0 0.00 0.00 0.00 39 1008.1
20260904051901 92 123 0.0 4.0 0.00 0.00 0.00 39 1008.2
20260904050923 92 126 0.0 1.0 0.00 0.00 0.00 39 1008.1
20260904050200 92 112 0.0 1.0 0.00 0.00 0.00 39 1008.1
20260904045702 92 142 0.0 2.0 0.00 0.00 0.00 39 1008.0
20260904045201 92 141 0.0 2.0 0.00 0.00 0.00 39 1008.0
20260904044701 92 133 0.0 3.0 0.00 0.00 0.00 39 1008.0
20260904044201 92 128 0.0 10.0 0.00 0.00 0.00 39 1008.1
20260904043922 92 118 0.0 10.0 0.00 0.00 0.00 39 1008.1
20260904043200 92 121 1.0 11.0 0.00 0.00 0.00 39 1008.1
20260904042701 92 136 1.0 11.0 0.00 0.00 0.00 40 1008.1
20260904042201 92 126 1.0 10.0 0.00 0.00 0.00 40 1008.0
20260904041701 92 119 0.0 10.0 0.00 0.00 0.00 41 1008.0
20260904041201 92 161 0.0 0.0 0.00 0.00 0.00 41 1008.0
20260904040701 92 155 0.0 3.0 0.00 0.00 0.00 41 1007.8
20260904040200 92 145 1.0 10.0 0.00 0.00 0.00 41 1007.8
20260904035702 92 128 0.0 10.0 0.00 0.00 0.00 41 1007.8
20260904035201 92 136 0.0 3.0 0.00 0.00 0.00 41 1007.7
20260904034701 92 125 0.0 8.0 0.00 0.00 0.00 41 1007.6
20260904034201 92 138 0.0 8.0 0.00 0.00 0.00 41 1007.6
20260904033701 92 136 0.0 1.0 0.00 0.00 0.00 41 1007.5
20260904033645 92 148 0.0 1.0 0.00 0.00 0.00 40 1007.5
20260904032702 92 176 0.0 4.0 0.00 0.00 0.00 40 1007.5
20260904032201 92 168 1.0 7.0 0.00 0.00 0.00 40 1007.3
20260904031701 93 128 1.0 10.0 0.00 0.00 0.00 39 1007.3
20260904031201 93 114 1.0 10.0 0.00 0.00 0.00 38 1007.3
20260904030701 93 184 0.0 7.0 0.00 0.00 0.00 38 1007.2
20260904030430 93 153 1.0 6.0 0.00 0.00 0.00 38 1007.1
20260904025702 94 138 0.0 6.0 0.00 0.00 0.00 38 1007.1
20260904025200 94 129 0.0 4.0 0.00 0.00 0.00 38 1007.0
20260904024701 94 142 0.0 10.0 0.00 0.00 0.00 38 1006.9
20260904024200 94 165 1.0 10.0 0.00 0.00 0.00 38 1006.8
20260904023655 94 123 3.0 11.0 0.00 0.00 0.00 38 1006.8
20260904023150 94 121 3.0 11.0 0.00 0.00 0.00 38 1006.7
20260904022644 94 123 4.0 15.0 0.00 0.00 0.00 38 1006.8
20260904022137 94 137 6.0 16.0 0.00 0.00 0.00 37 1006.7
20260904021638 95 138 3.0 16.0 0.00 0.00 0.00 37 1006.7
20260904021138 96 140 1.0 11.0 0.00 0.00 0.00 37 1006.5
20260904020638 96 177 2.0 13.0 0.00 0.00 0.00 36 1006.5
20260904020137 97 144 1.0 13.0 0.00 0.00 0.00 34 1006.6
20260904015856 98 150 0.0 1.0 0.00 0.00 0.00 30 1006.5
20260904015136 98 186 0.0 0.0 0.00 0.00 0.00 30 1006.3
20260904014636 98 209 0.0 0.0 0.00 0.00 0.00 30 1006.3
20260904014136 98 209 0.0 0.0 0.00 0.00 0.00 30 1006.3
20260904013634 98 214 0.0 0.0 0.00 0.00 0.00 29 1006.3
20260904013133 98 215 0.0 0.0 0.00 0.00 0.00 29 1006.3
20260904012632 98 217 0.0 0.0 0.00 0.00 0.00 29 1006.3
20260904012132 98 216 0.0 0.0 0.00 0.00 0.00 29 1006.4
20260904011848 98 215 0.0 0.0 0.00 0.00 0.00 29 1006.3
20260904011130 99 214 0.0 0.0 0.00 0.00 0.00 29 1006.3
20260904010629 99 205 0.0 0.0 0.00 0.00 0.00 29 1006.4
20260904010129 99 198 0.0 0.0 0.00 0.00 0.00 28 1006.4
20260904005628 100 222 0.0 2.0 0.00 0.00 0.00 28 1006.4
20260904005129 100 267 0.0 2.0 0.00 0.00 0.00 28 1006.4
20260904004626 100 198 0.0 0.0 0.00 0.00 0.00 28 1006.4
20260904004119 100 197 0.0 1.0 0.00 0.00 0.00 28 1006.4
20260904003620 100 197 0.0 5.0 0.00 0.00 0.00 28 1006.4
20260904003117 100 235 0.0 5.0 0.00 0.00 0.00 28 1006.4
20260904002616 100 234 0.0 0.0 0.00 0.00 0.00 28 1006.4
20260904002114 100 251 0.0 1.0 0.00 0.00 0.00 29 1006.4
20260904001612 100 219 0.0 1.0 0.00 0.00 0.00 29 1006.5
20260904001112 100 194 0.0 0.0 0.00 0.00 0.00 29 1006.5
20260904000613 100 195 0.0 0.0 0.00 0.00 0.00 28 1006.5
20260904000112 100 202 0.0 0.0 0.00 0.00 0.00 28 1006.6
20260903235612 100 212 0.0 0.0 0.00 0.00 0.00 28 1006.6
20260903235113 101 211 0.0 0.0 0.00 0.00 0.00 28 1006.6
20260903234837 101 254 0.0 1.0 0.00 0.00 0.00 27 1006.6
20260903234111 101 225 0.0 1.0 0.00 0.00 0.00 27 1006.7
20260903234058 101 187 0.0 1.0 0.00 0.00 0.00 27 1006.7
20260903233343 101 175 0.0 0.0 0.00 0.00 0.00 28 1006.8
20260903232833 101 180 0.0 2.0 0.00 0.00 0.00 28 1006.8
20260903232110 101 200 0.0 2.0 0.00 0.00 0.00 28 1006.9
20260903231611 101 146 0.0 0.0 0.00 0.00 0.00 28 1006.9
20260903231106 101 145 0.0 4.0 0.00 0.00 0.00 28 1006.9
20260903230606 101 161 0.0 4.0 0.00 0.00 0.00 28 1007.0
20260903230106 101 202 0.0 3.0 0.00 0.00 0.00 28 1007.1
20260903225605 101 207 0.0 1.0 0.00 0.00 0.00 28 1007.1
20260903225106 101 188 0.0 4.0 0.00 0.00 0.00 28 1007.1
20260903224606 101 135 0.0 4.0 0.00 0.00 0.00 28 1007.2
20260903224337 101 205 0.0 8.0 0.00 0.00 0.00 28 1007.2
20260903223605 101 191 0.0 8.0 0.00 0.00 0.00 28 1007.2
20260903223106 101 194 0.0 1.0 0.00 0.00 0.00 28 1007.3
20260903222601 101 207 0.0 0.0 0.00 0.00 0.00 29 1007.4
20260903222102 100 229 0.0 0.0 0.00 0.00 0.00 29 1007.5
20260903221602 99 221 0.0 0.0 0.00 0.00 0.00 30 1007.5
20260903221101 99 224 0.0 0.0 0.00 0.00 0.00 30 1007.6
20260903220601 99 232 0.0 6.0 0.00 0.00 0.00 29 1007.7
20260903220101 100 237 0.0 6.0 0.00 0.00 0.00 29 1007.7
20260903215602 100 194 0.0 1.0 0.00 0.00 0.00 29 1007.8
20260903215101 100 138 1.0 9.0 0.00 0.00 0.00 29 1008.0
20260903214601 100 127 1.0 9.0 0.00 0.00 0.00 28 1008.1
20260903214101 100 159 0.0 2.0 0.00 0.00 0.00 29 1008.1
20260903213600 100 175 0.0 11.0 0.00 0.00 0.00 29 1008.2
20260903213101 99 177 0.0 11.0 0.00 0.00 0.00 29 1008.3
20260903212600 99 138 0.0 5.0 0.00 0.00 0.00 29 1008.5
20260903212101 99 122 0.0 5.0 0.00 0.00 0.00 29 1008.5
20260903211602 99 192 1.0 10.0 0.00 0.00 0.00 29 1008.6
20260903211327 99 179 1.0 10.0 0.00 0.00 0.00 29 1008.7
20260903210602 99 121 1.0 10.0 0.00 0.00 0.00 29 1008.7
20260903205826 98 119 0.0 6.0 0.00 0.00 0.00 29 1008.8
20260903205101 98 176 0.0 8.0 0.00 0.00 0.00 29 1009.0
20260903204601 98 223 2.0 15.0 0.00 0.00 0.00 30 1009.0
20260903204101 98 141 2.0 15.0 0.00 0.00 0.00 31 1009.1
20260903203601 98 165 1.0 10.0 0.00 0.00 0.00 31 1009.1
20260903203057 98 130 1.0 10.0 0.00 0.00 0.00 31 1009.3
20260903202812 98 219 1.0 7.0 0.00 0.00 0.00 31 1009.3
20260903202043 98 168 1.0 7.0 0.00 0.00 0.00 31 1009.3
20260903202018 98 133 1.0 7.0 0.00 0.00 0.00 31 1009.4